FW9268 Weather Reports


Display with metric or nautical units.
time (UTC)temp
F
wind
direction
speed
MPH
gust
MPH
rain 1hr
in
rain 24hr
in
rain mn
in
humidity
%
barometer
mb
20260902001543 76 249 1.0 7.0 0.00 0.00 0.00 66 1022.4
20260902001529 76 248 1.0 7.0 0.00 0.00 0.00 67 1012.9
20260902000045 78 240 0.0 4.0 0.00 0.00 0.00 62 1022.2
20260902000030 78 239 1.0 4.0 0.00 0.00 0.00 63 1012.8
20260901234547 80 0 1.0 5.0 0.00 0.00 0.00 59 1022.2
20260901234526 80 242 1.0 5.0 0.00 0.00 0.00 59 1012.8
20260901233046 80 0 1.0 5.0 0.00 0.00 0.00 56 1022.1
20260901233026 80 230 1.0 5.0 0.00 0.00 0.00 57 1012.6
20260901231557 80 225 1.0 5.0 0.00 0.00 0.00 54 1022.2
20260901231526 80 225 1.0 5.0 0.00 0.00 0.00 55 1012.5
20260901230051 81 242 1.0 5.0 0.00 0.00 0.00 52 1022.0
20260901230038 81 242 1.0 5.0 0.00 0.00 0.00 53 1012.3
20260901224550 83 231 5.0 14.0 0.00 0.00 0.00 48 1022.2
20260901224524 83 231 4.0 10.0 0.00 0.00 0.00 49 1012.5
20260901223043 84 188 2.0 14.0 0.00 0.00 0.00 49 1022.4
20260901223024 84 189 1.0 14.0 0.00 0.00 0.00 50 1012.7
20260901221554 84 221 3.0 11.0 0.00 0.00 0.00 46 1022.3
20260901221526 84 221 4.0 9.0 0.00 0.00 0.00 47 1012.7
20260901220052 85 242 4.0 9.0 0.00 0.00 0.00 44 1022.3
20260901220039 85 242 5.0 9.0 0.00 0.00 0.00 45 1012.6
20260901214545 84 224 2.0 11.0 0.00 0.00 0.00 48 1022.2
20260901214522 84 200 2.0 8.0 0.00 0.00 0.00 49 1012.5
20260901213044 84 236 3.0 12.0 0.00 0.00 0.00 47 1022.3
20260901213020 84 238 3.0 11.0 0.00 0.00 0.00 47 1012.7
20260901211550 85 211 6.0 12.0 0.00 0.00 0.00 47 1022.2
20260901211521 85 207 6.0 11.0 0.00 0.00 0.00 47 1012.6
20260901210108 84 270 2.0 10.0 0.00 0.00 0.00 50 1022.2
20260901210027 84 238 3.0 10.0 0.00 0.00 0.00 50 1012.5
20260901204545 84 210 3.0 12.0 0.00 0.00 0.00 49 1022.3
20260901204519 84 240 4.0 10.0 0.00 0.00 0.00 49 1012.7
20260901203044 87 205 5.0 13.0 0.00 0.00 0.00 46 1022.3
20260901203034 87 216 5.0 13.0 0.00 0.00 0.00 47 1012.6
20260901201548 86 219 5.0 15.0 0.00 0.00 0.00 46 1022.2
20260901201515 86 219 5.0 15.0 0.00 0.00 0.00 46 1012.7
20260901200047 86 222 3.0 12.0 0.00 0.00 0.00 48 1022.4
20260901200013 86 222 3.0 11.0 0.00 0.00 0.00 48 1012.9
20260901194545 85 297 4.0 16.0 0.00 0.00 0.00 49 1022.6
20260901194514 85 274 4.0 15.0 0.00 0.00 0.00 50 1013.0
20260901193044 85 246 3.0 16.0 0.00 0.00 0.00 50 1022.8
20260901193013 85 229 3.0 13.0 0.00 0.00 0.00 50 1013.2
20260901191600 85 249 5.0 13.0 0.00 0.00 0.00 48 1022.9
20260901191513 85 226 5.0 13.0 0.00 0.00 0.00 49 1013.3
20260901190115 85 244 5.0 12.0 0.00 0.00 0.00 50 1022.9
20260901190015 85 281 5.0 12.0 0.00 0.00 0.00 50 1013.4
20260901184548 85 188 5.0 12.0 0.00 0.00 0.00 51 1023.0
20260901184508 85 192 5.0 12.0 0.00 0.00 0.00 51 1013.5
20260901183044 85 240 3.0 12.0 0.00 0.00 0.00 49 1022.9
20260901183012 85 240 4.0 10.0 0.00 0.00 0.00 50 1013.5
20260901181554 85 225 3.0 12.0 0.00 0.00 0.00 51 1023.0
20260901181507 85 226 3.0 9.0 0.00 0.00 0.00 52 1013.6
20260901180051 85 245 4.0 12.0 0.00 0.00 0.00 49 1023.1
20260901180006 85 242 6.0 12.0 0.00 0.00 0.00 49 1013.6
20260901174552 84 242 2.0 9.0 0.00 0.00 0.00 53 1023.2
20260901174503 84 242 2.0 7.0 0.00 0.00 0.00 53 1013.7
20260901173047 84 268 4.0 9.0 0.00 0.00 0.00 53 1023.4
20260901173001 84 191 5.0 9.0 0.00 0.00 0.00 54 1013.9
20260901171602 83 233 4.0 10.0 0.00 0.00 0.00 56 1014.1
20260901171553 83 236 3.0 10.0 0.00 0.00 0.00 55 1023.5
20260901170100 82 232 6.0 9.0 0.00 0.00 0.00 55 1014.1
20260901170058 82 206 5.0 9.0 0.00 0.00 0.00 55 1023.7
20260901164600 81 224 4.0 10.0 0.00 0.00 0.00 57 1023.9
20260901164553 82 209 3.0 10.0 0.00 0.00 0.00 57 1014.3
20260901163104 82 234 1.0 6.0 0.00 0.00 0.00 60 1024.0
20260901163050 82 233 1.0 6.0 0.00 0.00 0.00 59 1014.5
20260901161551 81 0 1.0 8.0 0.00 0.00 0.00 62 1024.2
20260901161546 81 265 1.0 8.0 0.00 0.00 0.00 64 1014.7
20260901160044 80 218 2.0 5.0 0.00 0.00 0.00 63 1024.3
20260901154554 79 192 2.0 5.0 0.00 0.00 0.00 69 1024.4
20260901154539 79 192 2.0 5.0 0.00 0.00 0.00 69 1014.9
20260901153048 78 281 1.0 4.0 0.00 0.00 0.00 67 1024.5
20260901153038 78 281 1.0 4.0 0.00 0.00 0.00 67 1015.0
20260901151545 77 281 1.0 6.0 0.00 0.00 0.00 72 1024.5
20260901151533 77 281 1.0 4.0 0.00 0.00 0.00 73 1015.0
20260901150050 76 0 0.0 4.0 0.00 0.00 0.00 79 1024.4
20260901150033 76 292 0.0 4.0 0.00 0.00 0.00 80 1015.0
20260901144549 75 300 0.0 3.0 0.00 0.00 0.00 81 1024.3
20260901144526 75 300 0.0 3.0 0.00 0.00 0.00 82 1014.8
20260901143049 73 0 0.0 2.0 0.00 0.00 0.00 89 1024.2
20260901143022 73 302 0.0 1.0 0.00 0.00 0.00 90 1014.9
20260901141542 71 302 0.0 2.0 0.00 0.00 0.00 93 1024.2
20260901141518 71 302 0.0 2.0 0.00 0.00 0.00 94 1014.9
20260901140056 69 0 0.0 0.0 0.00 0.00 0.00 97 1024.3
20260901140020 69 302 0.0 0.0 0.00 0.00 0.00 98 1015.0
20260901134542 65 0 0.0 0.0 0.00 0.00 0.00 98 1024.3
20260901134512 65 302 0.0 0.0 0.00 0.00 0.00 98 1015.0
20260901133101 61 0 0.0 0.0 0.00 0.00 0.00 98 1024.2
20260901133011 61 302 0.0 0.0 0.00 0.00 0.00 98 1015.0
20260901131552 60 0 0.0 0.0 0.00 0.00 0.00 98 1024.3
20260901131507 60 302 0.0 0.0 0.00 0.00 0.00 98 1015.0
20260901130046 59 0 0.0 0.0 0.00 0.00 0.00 98 1024.2
20260901130003 58 302 0.0 0.0 0.00 0.00 0.00 98 1014.9
20260901124600 58 302 0.0 0.0 0.00 0.00 0.00 98 1014.8
20260901124551 57 0 0.0 0.0 0.00 0.00 0.00 98 1024.0
20260901123057 56 302 0.0 0.0 0.00 0.00 0.00 98 1014.5
20260901123050 56 0 0.0 0.0 0.00 0.00 0.00 98 1023.8
20260901121556 55 302 0.0 0.0 0.00 0.00 0.00 98 1014.3
20260901121553 55 0 0.0 0.0 0.00 0.00 0.00 97 1023.7
20260901120116 56 302 0.0 0.0 0.00 0.00 0.00 98 1014.4
20260901120045 56 0 0.0 0.0 0.00 0.00 0.00 98 1023.7
20260901114550 56 302 0.0 0.0 0.00 0.00 0.00 98 1014.1
20260901114543 56 0 0.0 0.0 0.00 0.00 0.00 98 1023.5
20260901113056 56 302 0.0 0.0 0.00 0.00 0.00 98 1014.1
20260901113051 56 0 0.0 0.0 0.00 0.00 0.00 98 1023.5
20260901111613 56 0 0.0 0.0 0.00 0.00 0.00 97 1023.4
20260901111547 56 302 0.0 0.0 0.00 0.00 0.00 98 1014.0
20260901110049 56 0 0.0 0.0 0.00 0.00 0.00 97 1023.2
20260901110045 56 302 0.0 0.0 0.00 0.00 0.00 98 1013.7
20260901104557 56 0 0.0 0.0 0.00 0.00 0.00 98 1022.9
20260901104549 56 302 0.0 0.0 0.00 0.00 0.00 98 1013.4
20260901103051 56 0 0.0 0.0 0.00 0.00 0.00 97 1022.8
20260901103043 56 302 0.0 0.0 0.00 0.00 0.00 98 1013.3
20260901101550 56 302 0.0 0.0 0.00 0.00 0.00 98 1013.4
20260901101548 56 0 0.0 0.0 0.00 0.00 0.00 97 1022.9
20260901100055 57 0 0.0 0.0 0.00 0.00 0.00 97 1023.0
20260901100040 57 302 0.0 0.0 0.00 0.00 0.00 98 1013.5
20260901094552 57 0 0.0 0.0 0.00 0.00 0.00 97 1023.0
20260901094540 57 302 0.0 0.0 0.00 0.00 0.00 98 1013.6
20260901093048 57 302 0.0 0.0 0.00 0.00 0.00 98 1013.6
20260901093046 57 0 0.0 0.0 0.00 0.00 0.00 97 1023.1
20260901091551 57 0 0.0 1.0 0.00 0.00 0.00 97 1022.9
20260901091548 57 302 0.0 0.0 0.00 0.00 0.00 98 1013.4
20260901090057 58 0 0.0 1.0 0.00 0.00 0.00 97 1023.0
20260901090035 58 302 0.0 1.0 0.00 0.00 0.00 98 1013.4
20260901084547 58 0 0.0 0.0 0.00 0.00 0.00 97 1022.9
20260901084537 58 302 0.0 0.0 0.00 0.00 0.00 98 1013.3
20260901083047 58 0 0.0 0.0 0.00 0.00 0.00 97 1023.0
20260901083033 58 302 0.0 0.0 0.00 0.00 0.00 98 1013.5
20260901081542 59 0 0.0 0.0 0.00 0.00 0.00 97 1023.0
20260901081531 59 302 0.0 0.0 0.00 0.00 0.00 98 1013.3
20260901080107 59 0 0.0 0.0 0.00 0.00 0.00 97 1022.9
20260901080034 59 302 0.0 0.0 0.00 0.00 0.00 98 1013.2
20260901074547 60 0 0.0 0.0 0.00 0.00 0.00 97 1022.9
20260901074528 60 302 0.0 0.0 0.00 0.00 0.00 98 1013.2
20260901073045 61 0 0.0 0.0 0.00 0.00 0.00 97 1023.0
20260901073026 61 302 0.0 0.0 0.00 0.00 0.00 98 1013.3
20260901071600 61 0 0.0 0.0 0.00 0.00 0.00 97 1023.2
20260901071525 61 302 0.0 0.0 0.00 0.00 0.00 98 1013.4
20260901070055 61 0 0.0 0.0 0.00 0.00 0.00 97 1023.2
20260901070022 61 302 0.0 0.0 0.00 0.00 0.00 98 1013.5
20260901064607 62 0 0.0 0.0 0.00 0.00 0.00 97 1023.0
20260901064524 62 302 0.0 0.0 0.00 0.00 0.00 98 1013.3
20260901063106 63 0 0.0 0.0 0.00 0.00 0.00 97 1023.0
20260901063019 63 302 0.0 0.0 0.00 0.00 0.00 98 1013.3
20260901061546 62 0 0.0 1.0 0.00 0.00 0.00 97 1022.9
20260901061518 62 302 0.0 0.0 0.00 0.00 0.00 98 1013.3
20260901060047 63 0 0.0 0.0 0.00 0.00 0.00 97 1023.0
20260901060015 63 302 0.0 0.0 0.00 0.00 0.00 98 1013.3
20260901054550 64 0 0.0 0.0 0.00 0.00 0.00 97 1022.9
20260901054514 64 302 0.0 0.0 0.00 0.00 0.00 97 1013.1
20260901053050 64 0 0.0 0.0 0.00 0.00 0.00 97 1022.8
20260901053013 64 302 0.0 0.0 0.00 0.00 0.00 98 1013.1
20260901051552 65 0 0.0 0.0 0.00 0.00 0.00 97 1022.8
20260901051512 65 302 0.0 0.0 0.00 0.00 0.00 98 1013.2
20260901050053 65 0 0.0 0.0 0.00 0.00 0.00 97 1023.0
20260901050008 65 302 0.0 0.0 0.00 0.00 0.00 97 1013.2
20260901044548 65 0 0.0 0.0 0.00 0.00 0.00 97 1022.8
20260901044509 65 302 0.0 0.0 0.00 0.00 0.00 97 1013.1
20260901043050 65 0 0.0 0.0 0.00 0.00 0.00 96 1022.8
20260901043006 65 302 0.0 0.0 0.00 0.00 0.00 97 1013.0
20260901041548 66 0 0.0 0.0 0.00 0.00 0.00 96 1022.7
20260901041503 66 302 0.0 0.0 0.00 0.00 0.00 97 1012.8
20260901040046 67 0 0.0 0.0 0.00 0.00 0.00 96 1022.7
20260901040003 67 302 0.0 0.0 0.00 0.00 0.00 97 1012.8
20260901034606 68 302 0.0 0.0 0.00 0.00 0.00 97 1012.6
20260901034553 68 0 0.0 0.0 0.00 0.00 0.00 96 1022.6
20260901033124 69 302 0.0 0.0 0.00 0.00 0.00 97 1012.6
20260901033050 69 0 0.0 0.0 0.00 0.00 0.00 96 1022.5
20260901031625 69 302 0.0 0.0 0.00 0.00 0.00 97 1012.8
20260901031549 69 0 0.0 0.0 0.00 0.00 0.00 96 1022.6
20260901030059 70 302 0.0 0.0 0.00 0.00 0.00 96 1012.6
20260901030051 70 0 0.0 0.0 0.00 0.00 0.00 96 1022.6
20260901024559 71 302 0.0 0.0 0.00 0.00 0.00 96 1012.6
20260901024543 71 0 0.0 0.0 0.00 0.00 0.00 96 1022.4
20260901023107 71 302 0.0 0.0 0.00 0.00 0.00 96 1012.5
20260901023052 71 0 0.0 0.0 0.00 0.00 0.00 95 1022.4
20260901021559 72 302 0.0 0.0 0.00 0.00 0.00 95 1012.4
20260901021551 72 0 0.0 0.0 0.00 0.00 0.00 95 1022.3
20260901020057 73 302 0.0 0.0 0.00 0.00 0.00 95 1012.4
20260901020046 73 0 0.0 0.0 0.00 0.00 0.00 94 1022.3
20260901014604 74 302 0.0 0.0 0.00 0.00 0.00 94 1012.3
20260901014550 74 0 0.0 0.0 0.00 0.00 0.00 93 1022.2
20260901013100 74 0 0.0 0.0 0.00 0.00 0.00 92 1022.0
20260901013056 74 302 0.0 0.0 0.00 0.00 0.00 92 1012.0
20260901011556 76 302 0.0 0.0 0.00 0.00 0.00 90 1012.0
20260901011540 76 0 0.0 0.0 0.00 0.00 0.00 90 1021.9
20260901010056 77 302 0.0 0.0 0.00 0.00 0.00 88 1011.7
20260901010052 77 0 0.0 0.0 0.00 0.00 0.00 88 1021.7
20260901004556 79 0 1.0 4.0 0.00 0.00 0.00 83 1021.6
20260901003102 80 312 0.0 6.0 0.00 0.00 0.00 83 1011.7
20260901003057 80 312 0.0 6.0 0.00 0.00 0.00 82 1021.6